Weather History for Caro, MI

Change the Weather History Date:

Tuesday, April 2, 2013

  Actual Average (KMBS) Record (KMBS)
Temperature  
Mean Temperature 30 °F 41 °F  
Max Temperature 39 °F 50 °F 72 °F (1999)
Min Temperature 21 °F 31 °F 21 °F (2013)
Degree Days  
Heating Degree Days 35    
Month to date heating degree days  
Since 1 July heating degree days  
Cooling Degree Days 0    
Month to date cooling degree days  
Year to date cooling degree days  
Moisture  
Dew Point 13 °F    
Average Humidity 51    
Maximum Humidity 74    
Minimum Humidity 28    
Precipitation  
Precipitation 0.00 in 0.09 in 0.44 in (2002)
Month to date precipitation 0.17  
Year to date precipitation 5.55  
Snow  
Snow 0.00 in - - ()
Month to date snowfall  
Since 1 July snowfall  
Snow Depth -    
Sea Level Pressure  
Sea Level Pressure 30.11 in    
Wind  
Wind Speed 10 mph (WNW)    
Max Wind Speed 20 mph    
Max Gust Speed 26 mph    
Visibility 10 miles    
Events Snow    
T = Trace of Precipitation, MM = Missing Value Source: NWS Daily Summary

Daily Weather History Graph

Daily Weather History Graph

Search for Another Location

Airport:

Trip Planner

Search our weather history database for the weather conditions in past years. The results will help you decide how hot, cold, wet, or windy it might be!

Date:

Astronomy

Apr. 02, 2013 Rise Set
Actual Time 7:13 AM EDT 8:01 PM EDT
Civil Twilight 6:44 AM EDT 8:30 PM EDT
Nautical Twilight 6:10 AM EDT 9:05 PM EDT
Astronomical Twilight 5:34 AM EDT 9:41 PM EDT
Moon 2:12 AM EDT 11:56 AM EDT
Length of Visible Light 13h 46m
Length of Day
12h 48m
Waning Gibbous, 56% of the Moon is Illuminated
Apr 2
Waning Gibbous
Apr 3
Last Quarter
Apr 10
New
Apr 18
First Quarter
Apr 25
Full

Hourly Weather History & Observations

Time (EDT) Temp. Windchill Dew Point Humidity Pressure Visibility Wind Dir Wind Speed Gust Speed Precip Events Conditions
12:15 AM 28.2 °F 20.2 °F 16.7 °F 62% 30.05 in 10.0 mi West 8.1 mph - N/A   Overcast
12:35 AM 28.4 °F 16.6 °F 15.6 °F 59% 30.05 in 10.0 mi West 16.1 mph - N/A   Overcast
12:55 AM 28.2 °F 20.2 °F 17.6 °F 64% 30.06 in 5.0 mi WNW 8.1 mph - N/A Snow Light Snow
1:15 AM 27.5 °F 18.0 °F 18.7 °F 69% 30.06 in 3.0 mi WNW 10.4 mph - N/A Snow Light Snow
1:35 AM 27.7 °F 17.6 °F 18.5 °F 68% 30.06 in 4.0 mi WNW 11.5 mph 16.1 mph N/A Snow Light Snow
1:55 AM 27.3 °F 18.4 °F 19.9 °F 74% 30.07 in 4.0 mi NW 9.2 mph - N/A Snow Light Snow
2:15 AM 26.8 °F 18.5 °F 18.7 °F 72% 30.07 in 7.0 mi NNW 8.1 mph - N/A Snow Light Snow
2:35 AM 26.2 °F 18.6 °F 16.5 °F 67% 30.07 in 10.0 mi NNW 6.9 mph - N/A Snow Light Snow
2:55 AM 25.5 °F 18.7 °F 15.4 °F 66% 30.07 in 10.0 mi NNW 5.8 mph - N/A   Overcast
3:15 AM 24.8 °F 20.5 °F 15.4 °F 68% 30.07 in 10.0 mi NW 3.5 mph - N/A   Overcast
3:35 AM 23.7 °F 19.3 °F 14.7 °F 69% 30.07 in 10.0 mi NW 3.5 mph - N/A   Scattered Clouds
3:55 AM 24.4 °F 18.6 °F 15.1 °F 68% 30.07 in 10.0 mi WNW 4.6 mph - N/A   Mostly Cloudy
4:15 AM 24.4 °F 18.6 °F 16.0 °F 70% 30.07 in 10.0 mi West 4.6 mph - N/A   Mostly Cloudy
4:35 AM 24.1 °F 16.0 °F 16.0 °F 71% 30.07 in 10.0 mi West 6.9 mph - N/A   Mostly Cloudy
4:54 AM 23.7 °F 16.6 °F 14.9 °F 69% 30.07 in 10.0 mi West 5.8 mph - N/A   Scattered Clouds
5:15 AM 22.8 °F 14.5 °F 14.9 °F 72% 30.07 in 10.0 mi West 6.9 mph - N/A   Clear
5:35 AM 22.1 °F 14.7 °F 14.0 °F 71% 30.07 in 10.0 mi West 5.8 mph - N/A   Clear
5:54 AM 22.5 °F 15.1 °F 13.6 °F 69% 30.07 in 10.0 mi West 5.8 mph - N/A   Clear
6:15 AM 22.1 °F 13.7 °F 13.6 °F 70% 30.08 in 10.0 mi WSW 6.9 mph - N/A   Clear
6:35 AM 22.1 °F 14.7 °F 13.6 °F 70% 30.08 in 10.0 mi WSW 5.8 mph - N/A   Clear
6:55 AM 21.7 °F 15.5 °F 13.6 °F 71% 30.08 in 10.0 mi SW 4.6 mph - N/A   Clear
7:15 AM 21.6 °F 14.0 °F 14.0 °F 73% 30.08 in 10.0 mi SW 5.8 mph - N/A   Clear
7:35 AM 21.2 °F 14.9 °F 14.2 °F 74% 30.09 in 10.0 mi SW 4.6 mph - N/A   Clear
7:55 AM 22.5 °F 14.1 °F 15.4 °F 74% 30.09 in 10.0 mi SW 6.9 mph - N/A   Clear
8:15 AM 24.8 °F 16.1 °F 16.0 °F 69% 30.10 in 10.0 mi WSW 8.1 mph - N/A   Clear
8:35 AM 26.1 °F 17.6 °F 16.9 °F 68% 30.10 in 10.0 mi WSW 8.1 mph - N/A   Clear
8:55 AM 27.3 °F 17.7 °F 17.1 °F 65% 30.11 in 10.0 mi WSW 10.4 mph 16.1 mph N/A   Clear
9:15 AM 29.1 °F 20.6 °F 17.2 °F 61% 30.11 in 10.0 mi West 9.2 mph 17.3 mph N/A   Clear
9:35 AM 30.2 °F 19.3 °F 16.7 °F 57% 30.11 in 10.0 mi West 15.0 mph - N/A   Scattered Clouds
9:55 AM 31.8 °F 21.4 °F 16.3 °F 53% 30.11 in 10.0 mi West 15.0 mph - N/A   Clear
10:34 AM 32.5 °F 22.7 °F 14.9 °F 48% 30.12 in 10.0 mi WNW 13.8 mph 18.4 mph N/A   Clear
10:55 AM 32.2 °F 22.7 °F 13.1 °F 45% 30.12 in 10.0 mi WNW 12.7 mph 19.6 mph N/A   Scattered Clouds
11:15 AM 33.1 °F 24.4 °F 11.7 °F 41% 30.12 in 10.0 mi WNW 11.5 mph 21.9 mph N/A   Scattered Clouds
11:34 AM 34.0 °F 23.8 °F 11.5 °F 39% 30.12 in 10.0 mi West 16.1 mph 25.3 mph N/A   Mostly Cloudy
11:55 AM 35.2 °F 25.0 °F 11.3 °F 37% 30.12 in 10.0 mi WNW 17.3 mph 21.9 mph N/A   Mostly Cloudy
12:15 PM 34.5 °F 24.5 °F 10.4 °F 37% 30.12 in 10.0 mi WNW 16.1 mph 23.0 mph N/A   Mostly Cloudy
12:35 PM 36.7 °F 26.9 °F 10.2 °F 34% 30.12 in 10.0 mi West 17.3 mph 23.0 mph N/A   Mostly Cloudy
12:55 PM 36.0 °F 27.1 °F 10.2 °F 34% 30.11 in 10.0 mi West 13.8 mph 21.9 mph N/A   Overcast
1:15 PM 36.9 °F 27.1 °F 11.8 °F 36% 30.11 in 10.0 mi WNW 17.3 mph 21.9 mph N/A   Overcast
1:35 PM 35.8 °F 26.9 °F 9.9 °F 34% 30.11 in 10.0 mi WNW 13.8 mph 17.3 mph N/A   Overcast
1:55 PM 36.1 °F 28.2 °F 10.2 °F 34% 30.11 in 10.0 mi West 11.5 mph 21.9 mph N/A   Overcast
2:15 PM 36.3 °F 27.1 °F 10.2 °F 34% 30.10 in 10.0 mi WNW 15.0 mph 19.6 mph N/A   Overcast
2:35 PM 36.1 °F 28.2 °F 9.9 °F 34% 30.11 in 10.0 mi West 11.5 mph - N/A   Overcast
2:55 PM 37.6 °F 28.1 °F 9.7 °F 32% 30.10 in 10.0 mi West 17.3 mph 21.9 mph N/A   Overcast
3:14 PM 39.6 °F 30.0 °F 10.4 °F 30% 30.10 in 10.0 mi West 19.6 mph 26.5 mph N/A   Mostly Cloudy
3:35 PM 37.0 °F 28.5 °F 8.8 °F 31% 30.10 in 10.0 mi WNW 13.8 mph - N/A   Overcast
3:55 PM 37.4 °F 28.9 °F 8.6 °F 30% 30.10 in 10.0 mi West 13.8 mph 20.7 mph N/A   Overcast
4:14 PM 37.6 °F 28.4 °F 9.9 °F 32% 30.09 in 10.0 mi NW 16.1 mph 19.6 mph N/A   Mostly Cloudy
4:35 PM 38.1 °F 29.5 °F 9.3 °F 30% 30.10 in 10.0 mi WNW 15.0 mph 20.7 mph N/A   Overcast
4:55 PM 38.5 °F 29.6 °F 8.1 °F 28% 30.10 in 10.0 mi West 16.1 mph 21.9 mph N/A   Overcast
5:15 PM 37.8 °F 29.4 °F 9.5 °F 31% 30.10 in 10.0 mi NW 13.8 mph 17.3 mph N/A   Overcast
5:35 PM 38.3 °F 30.5 °F 9.5 °F 31% 30.11 in 10.0 mi NNW 12.7 mph 18.4 mph N/A   Overcast
5:48 PM 36.9 °F 28.7 °F 9.1 °F 32% 30.11 in 10.0 mi NW 12.7 mph 18.4 mph N/A   Overcast
6:21 PM 36.7 °F 28.4 °F 9.0 °F 32% 30.12 in 10.0 mi NW 12.7 mph 16.1 mph N/A   Overcast
6:35 PM 35.8 °F 26.9 °F 9.0 °F 33% 30.12 in 10.0 mi NW 13.8 mph 19.6 mph N/A   Mostly Cloudy
6:55 PM 35.8 °F 26.1 °F 8.4 °F 32% 30.13 in 10.0 mi NW 16.1 mph 19.6 mph N/A   Mostly Cloudy
7:15 PM 35.8 °F 27.3 °F 8.8 °F 33% 30.14 in 10.0 mi NW 12.7 mph - N/A   Mostly Cloudy
7:35 PM 34.7 °F 25.1 °F 7.9 °F 33% 30.15 in 10.0 mi NNW 15.0 mph 20.7 mph N/A   Scattered Clouds
7:54 PM 33.6 °F 24.1 °F 9.5 °F 37% 30.15 in 10.0 mi NW 13.8 mph 18.4 mph N/A   Clear
8:15 PM 32.5 °F 23.2 °F 10.2 °F 39% 30.16 in 10.0 mi NW 12.7 mph 17.3 mph N/A   Clear
8:35 PM 32.0 °F 22.1 °F 10.6 °F 41% 30.17 in 10.0 mi NNW 13.8 mph 20.7 mph N/A   Clear
8:55 PM 31.8 °F 23.3 °F 11.1 °F 42% 30.18 in 10.0 mi NNW 10.4 mph 18.4 mph N/A   Clear
9:15 PM 31.1 °F 21.4 °F 10.6 °F 42% 30.19 in 10.0 mi NW 12.7 mph 16.1 mph N/A   Clear
9:35 PM 31.1 °F 21.4 °F 10.0 °F 41% 30.20 in 10.0 mi NW 12.7 mph 20.7 mph N/A   Clear
9:55 PM 30.7 °F 22.0 °F 10.4 °F 43% 30.20 in 10.0 mi NW 10.4 mph - N/A   Clear
10:15 PM 30.2 °F 23.4 °F 10.6 °F 44% 30.20 in 10.0 mi NW 6.9 mph - N/A   Clear
10:35 PM 29.3 °F 24.3 °F 11.1 °F 47% 30.21 in 10.0 mi WNW 4.6 mph - N/A   Clear
10:55 PM 28.4 °F 23.3 °F 12.4 °F 51% 30.21 in 10.0 mi WNW 4.6 mph - N/A   Clear
11:15 PM 27.5 °F 23.6 °F 14.9 °F 59% 30.22 in 10.0 mi West 3.5 mph - N/A   Clear
11:34 PM 26.6 °F - 15.4 °F 63% 30.22 in 10.0 mi Calm Calm - N/A   Clear
11:55 PM 26.2 °F 22.1 °F 15.3 °F 63% 30.22 in 10.0 mi West 3.5 mph - N/A   Clear